owner,sensor,date,latitude,longitude,vertical_datum,direction_of_sea_water_velocity,sea_water_speed,upward_sea_water_velocity,qcFlag 
TABS,ioos:station:wmo:42043:1,2008-10-01T00:00:00Z,28.9818,-94.9186,2.0,2.646136975,15.59662784,-99999.0,'11111222,11111222,99999999' 
TABS,ioos:station:wmo:42043:1,2008-10-01T00:30:00Z,28.9818,-94.9186,2.0,12.9116831,11.36740956,-99999.0,'11111222,11111222,99999999' 
TABS,ioos:station:wmo:42043:1,2008-10-01T01:00:00Z,28.9818,-94.9186,2.0,38.7282911,11.78019524,-99999.0,'11111222,11111222,99999999' 
TABS,ioos:station:wmo:42043:1,2008-10-01T01:30:00Z,28.9818,-94.9186,2.0,67.54020076,12.11927803,-99999.0,'11111222,11111222,99999999' 
TABS,ioos:station:wmo:42043:1,2008-10-01T02:00:00Z,28.9818,-94.9186,2.0,75.54013209,13.77640011,-99999.0,'11111222,11111222,99999999' 
TABS,ioos:station:wmo:42043:1,2008-10-01T02:30:00Z,28.9818,-94.9186,2.0,74.83086037,17.54118012,-99999.0,'11111222,11111222,99999999' 
TABS,ioos:station:wmo:42043:1,2008-10-01T03:00:00Z,28.9818,-94.9186,2.0,81.49203409,18.65529683,-99999.0,'11111222,11111222,99999999' 
TABS,ioos:station:wmo:42043:1,2008-10-01T03:30:00Z,28.9818,-94.9186,2.0,108.5258511,19.92237436,-99999.0,'11111222,11111222,99999999' 
TABS,ioos:station:wmo:42043:1,2008-10-01T04:00:00Z,28.9818,-94.9186,2.0,126.5013558,20.52642443,-99999.0,'11111222,11111222,99999999' 
TABS,ioos:station:wmo:42043:1,2008-10-01T04:30:00Z,28.9818,-94.9186,2.0,127.5598593,24.24575839,-99999.0,'11111222,11111222,99999999' 
TABS,ioos:station:wmo:42043:1,2008-10-01T05:00:00Z,28.9818,-94.9186,2.0,142.8391398,23.64030457,-99999.0,'11111222,11111222,99999999' 
TABS,ioos:station:wmo:42043:1,2008-10-01T05:30:00Z,28.9818,-94.9186,2.0,149.4830563,25.50261555,-99999.0,'11111222,11111222,99999999' 
TABS,ioos:station:wmo:42043:1,2008-10-01T06:00:00Z,28.9818,-94.9186,2.0,156.2304563,27.4155175,-99999.0,'11111222,11111222,99999999' 
TABS,ioos:station:wmo:42043:1,2008-10-01T06:30:00Z,28.9818,-94.9186,2.0,159.660443,26.92901966,-99999.0,'11111222,11111222,99999999' 
TABS,ioos:station:wmo:42043:1,2008-10-01T07:00:00Z,28.9818,-94.9186,2.0,171.0636518,26.13725311,-99999.0,'11111222,11111222,99999999' 
TABS,ioos:station:wmo:42043:1,2008-10-01T07:30:00Z,28.9818,-94.9186,2.0,171.0195078,27.16296192,-99999.0,'11111222,11111222,99999999' 
TABS,ioos:station:wmo:42043:1,2008-10-01T08:00:00Z,28.9818,-94.9186,2.0,175.7181562,28.5296232,-99999.0,'11111222,11111222,99999999' 
TABS,ioos:station:wmo:42043:1,2008-10-01T08:30:00Z,28.9818,-94.9186,2.0,175.542084,24.57433824,-99999.0,'11111222,11111222,99999999' 
TABS,ioos:station:wmo:42043:1,2008-10-01T09:00:00Z,28.9818,-94.9186,2.0,175.3884653,26.86696857,-99999.0,'11111222,11111222,99999999' 
TABS,ioos:station:wmo:42043:1,2008-10-01T09:30:00Z,28.9818,-94.9186,2.0,171.9136731,23.95819901,-99999.0,'11111222,11111222,99999999' 
TABS,ioos:station:wmo:42043:1,2008-10-01T10:00:00Z,28.9818,-94.9186,2.0,176.8060246,22.79540524,-99999.0,'11111222,11111222,99999999' 
TABS,ioos:station:wmo:42043:1,2008-10-01T10:30:00Z,28.9818,-94.9186,2.0,174.4943246,20.84616272,-99999.0,'11111222,11111222,99999999' 
TABS,ioos:station:wmo:42043:1,2008-10-01T11:00:00Z,28.9818,-94.9186,2.0,180.0760143,22.55001996,-99999.0,'11111222,11111222,99999999' 
TABS,ioos:station:wmo:42043:1,2008-10-01T11:30:00Z,28.9818,-94.9186,2.0,190.1627694,23.1228026,-99999.0,'11111222,11111222,99999999' 
TABS,ioos:station:wmo:42043:1,2008-10-01T12:00:00Z,28.9818,-94.9186,2.0,186.8196827,21.89492179,-99999.0,'11111222,11111222,99999999' 
TABS,ioos:station:wmo:42043:1,2008-10-01T12:30:00Z,28.9818,-94.9186,2.0,185.5968119,14.55941276,-99999.0,'11111222,11111222,99999999' 
TABS,ioos:station:wmo:42043:1,2008-10-01T13:00:00Z,28.9818,-94.9186,2.0,199.9866957,12.7265117,-99999.0,'11111222,11111222,99999999' 
TABS,ioos:station:wmo:42043:1,2008-10-01T13:30:00Z,28.9818,-94.9186,2.0,241.9680225,20.61882877,-99999.0,'11111222,11111222,99999999' 
TABS,ioos:station:wmo:42043:1,2008-10-01T14:00:00Z,28.9818,-94.9186,2.0,245.2995305,22.39937722,-99999.0,'11111222,11111222,99999999' 
TABS,ioos:station:wmo:42043:1,2008-10-01T14:30:00Z,28.9818,-94.9186,2.0,244.9668242,21.74235498,-99999.0,'11111222,11111222,99999999' 
TABS,ioos:station:wmo:42043:1,2008-10-01T15:00:00Z,28.9818,-94.9186,2.0,240.1416429,18.21825733,-99999.0,'11111222,11111222,99999999' 
TABS,ioos:station:wmo:42043:1,2008-10-01T15:30:00Z,28.9818,-94.9186,2.0,258.5320607,16.3973321,-99999.0,'11111222,11111222,99999999' 
TABS,ioos:station:wmo:42043:1,2008-10-01T16:00:00Z,28.9818,-94.9186,2.0,248.7625558,15.4598868,-99999.0,'11111222,11111222,99999999' 
TABS,ioos:station:wmo:42043:1,2008-10-01T16:30:00Z,28.9818,-94.9186,2.0,258.621464,13.17901362,-99999.0,'11111222,11111222,99999999' 
TABS,ioos:station:wmo:42043:1,2008-10-01T17:00:00Z,28.9818,-94.9186,2.0,270.3550313,11.31021662,-99999.0,'11111222,11111222,99999999' 
TABS,ioos:station:wmo:42043:1,2008-10-01T17:30:00Z,28.9818,-94.9186,2.0,275.7068629,13.77828001,-99999.0,'11111222,11111222,99999999' 
TABS,ioos:station:wmo:42043:1,2008-10-01T18:00:00Z,28.9818,-94.9186,2.0,283.8017077,10.64740344,-99999.0,'11111222,11111222,99999999' 
TABS,ioos:station:wmo:42043:1,2008-10-01T18:30:00Z,28.9818,-94.9186,2.0,319.3858333,9.432136555,-99999.0,'11133222,11111222,99999999' 
TABS,ioos:station:wmo:42043:1,2008-10-01T19:00:00Z,28.9818,-94.9186,2.0,327.2484689,8.299427691,-99999.0,'11133222,11111222,99999999' 
TABS,ioos:station:wmo:42043:1,2008-10-01T19:30:00Z,28.9818,-94.9186,2.0,5.07980644,3.614194239,-99999.0,'11133222,11111222,99999999' 
TABS,ioos:station:wmo:42043:1,2008-10-01T20:00:00Z,28.9818,-94.9186,2.0,358.3752379,5.642269047,-99999.0,'11133222,11111222,99999999' 
TABS,ioos:station:wmo:42043:1,2008-10-01T20:30:00Z,28.9818,-94.9186,2.0,10.56311958,9.928242543,-99999.0,'11133222,11111222,99999999' 
TABS,ioos:station:wmo:42043:1,2008-10-01T21:00:00Z,28.9818,-94.9186,2.0,0.858865254,12.0113488,-99999.0,'11111222,11111222,99999999' 
TABS,ioos:station:wmo:42043:1,2008-10-01T21:30:00Z,28.9818,-94.9186,2.0,2.797772373,11.47367422,-99999.0,'11111222,11111222,99999999' 
TABS,ioos:station:wmo:42043:1,2008-10-01T22:00:00Z,28.9818,-94.9186,2.0,12.50219016,11.59493424,-99999.0,'11111222,11111222,99999999' 
TABS,ioos:station:wmo:42043:1,2008-10-01T22:30:00Z,28.9818,-94.9186,2.0,37.25114029,18.04039911,-99999.0,'11111222,11111222,99999999' 
TABS,ioos:station:wmo:42043:1,2008-10-01T23:00:00Z,28.9818,-94.9186,2.0,41.24636204,19.65731416,-99999.0,'11111222,11111222,99999999' 
TABS,ioos:station:wmo:42043:1,2008-10-01T23:30:00Z,28.9818,-94.9186,2.0,59.78997298,20.47012701,-99999.0,'11111222,11111222,99999999' 
TABS,ioos:station:wmo:42043:1,2008-10-02T00:00:00Z,28.9818,-94.9186,2.0,63.28983648,21.18010387,-99999.0,'11111222,11111222,99999999' 
TABS,ioos:station:wmo:42043:1,2008-10-02T00:30:00Z,28.9818,-94.9186,2.0,78.36742357,16.01901995,-99999.0,'11111222,11111222,99999999' 
TABS,ioos:station:wmo:42043:1,2008-10-02T01:00:00Z,28.9818,-94.9186,2.0,73.8169239,14.56721319,-99999.0,'11111222,11111222,99999999' 
TABS,ioos:station:wmo:42043:1,2008-10-02T01:30:00Z,28.9818,-94.9186,2.0,72.01899867,12.37438079,-99999.0,'11111222,11111222,99999999' 
TABS,ioos:station:wmo:42043:1,2008-10-02T02:00:00Z,28.9818,-94.9186,2.0,95.31988148,7.442056167,-99999.0,'11133222,11111222,99999999' 
TABS,ioos:station:wmo:42043:1,2008-10-02T02:30:00Z,28.9818,-94.9186,2.0,143.1979444,6.744004745,-99999.0,'11133222,11111222,99999999' 
TABS,ioos:station:wmo:42043:1,2008-10-02T03:00:00Z,28.9818,-94.9186,2.0,167.2610367,11.24683511,-99999.0,'11111222,11111222,99999999' 
TABS,ioos:station:wmo:42043:1,2008-10-02T03:30:00Z,28.9818,-94.9186,2.0,185.5031735,9.905659998,-99999.0,'11133222,11111222,99999999' 
TABS,ioos:station:wmo:42043:1,2008-10-02T04:00:00Z,28.9818,-94.9186,2.0,199.6589367,14.35685551,-99999.0,'11111222,11111222,99999999' 
TABS,ioos:station:wmo:42043:1,2008-10-02T04:30:00Z,28.9818,-94.9186,2.0,213.021744,13.08349342,-99999.0,'11111222,11111222,99999999' 
TABS,ioos:station:wmo:42043:1,2008-10-02T05:00:00Z,28.9818,-94.9186,2.0,218.0092263,10.45806866,-99999.0,'11111222,11111222,99999999' 
TABS,ioos:station:wmo:42043:1,2008-10-02T05:30:00Z,28.9818,-94.9186,2.0,212.754062,9.00121103,-99999.0,'11133222,11111222,99999999' 
TABS,ioos:station:wmo:42043:1,2008-10-02T06:00:00Z,28.9818,-94.9186,2.0,214.2291968,8.248757482,-99999.0,'11133222,11111222,99999999' 
TABS,ioos:station:wmo:42043:1,2008-10-02T06:30:00Z,28.9818,-94.9186,2.0,245.2278299,12.00461994,-99999.0,'11111222,11111222,99999999' 
TABS,ioos:station:wmo:42043:1,2008-10-02T07:00:00Z,28.9818,-94.9186,2.0,259.6640157,18.33754891,-99999.0,'11111222,11111222,99999999' 
TABS,ioos:station:wmo:42043:1,2008-10-02T07:30:00Z,28.9818,-94.9186,2.0,267.3298457,19.75143792,-99999.0,'11111222,11111222,99999999' 
TABS,ioos:station:wmo:42043:1,2008-10-02T08:00:00Z,28.9818,-94.9186,2.0,269.1949958,20.65203622,-99999.0,'11111222,11111222,99999999' 
TABS,ioos:station:wmo:42043:1,2008-10-02T08:30:00Z,28.9818,-94.9186,2.0,282.5389523,19.11591222,-99999.0,'11111222,11111222,99999999' 
TABS,ioos:station:wmo:42043:1,2008-10-02T09:00:00Z,28.9818,-94.9186,2.0,291.0570773,17.14484179,-99999.0,'11111222,11111222,99999999' 
TABS,ioos:station:wmo:42043:1,2008-10-02T09:30:00Z,28.9818,-94.9186,2.0,302.2489607,16.97919904,-99999.0,'11111222,11111222,99999999' 
TABS,ioos:station:wmo:42043:1,2008-10-02T10:00:00Z,28.9818,-94.9186,2.0,305.4114168,17.36162723,-99999.0,'11111222,11111222,99999999' 
TABS,ioos:station:wmo:42043:1,2008-10-02T10:30:00Z,28.9818,-94.9186,2.0,301.8783881,15.26188717,-99999.0,'11111222,11111222,99999999' 
TABS,ioos:station:wmo:42043:1,2008-10-02T11:00:00Z,28.9818,-94.9186,2.0,301.8588398,14.05773808,-99999.0,'11111222,11111222,99999999' 
TABS,ioos:station:wmo:42043:1,2008-10-02T11:30:00Z,28.9818,-94.9186,2.0,305.6941048,12.37460706,-99999.0,'11111222,11111222,99999999' 
TABS,ioos:station:wmo:42043:1,2008-10-02T12:00:00Z,28.9818,-94.9186,2.0,304.2853443,11.48568674,-99999.0,'11111222,11111222,99999999' 
TABS,ioos:station:wmo:42043:1,2008-10-02T12:30:00Z,28.9818,-94.9186,2.0,294.0403013,11.26730669,-99999.0,'11111222,11111222,99999999' 
TABS,ioos:station:wmo:42043:1,2008-10-02T13:00:00Z,28.9818,-94.9186,2.0,291.3161612,12.26933169,-99999.0,'11111222,11111222,99999999' 
TABS,ioos:station:wmo:42043:1,2008-10-02T13:30:00Z,28.9818,-94.9186,2.0,284.4662549,8.086365067,-99999.0,'11133222,11111222,99999999' 
TABS,ioos:station:wmo:42043:1,2008-10-02T14:00:00Z,28.9818,-94.9186,2.0,255.057088,9.967035668,-99999.0,'11133222,11111222,99999999' 
TABS,ioos:station:wmo:42043:1,2008-10-02T14:30:00Z,28.9818,-94.9186,2.0,257.2170468,10.53099236,-99999.0,'11111222,11111222,99999999' 
TABS,ioos:station:wmo:42043:1,2008-10-02T15:00:00Z,28.9818,-94.9186,2.0,261.1080657,11.38683889,-99999.0,'11111222,11111222,99999999' 
TABS,ioos:station:wmo:42043:1,2008-10-02T15:30:00Z,28.9818,-94.9186,2.0,260.5630183,10.97856548,-99999.0,'11111222,11111222,99999999' 
TABS,ioos:station:wmo:42043:1,2008-10-02T16:00:00Z,28.9818,-94.9186,2.0,255.2960616,10.20416582,-99999.0,'11111222,11111222,99999999' 
TABS,ioos:station:wmo:42043:1,2008-10-02T16:30:00Z,28.9818,-94.9186,2.0,258.3102372,7.403546447,-99999.0,'11133222,11111222,99999999' 
TABS,ioos:station:wmo:42043:1,2008-10-02T17:00:00Z,28.9818,-94.9186,2.0,271.4113584,6.091847011,-99999.0,'11133222,11111222,99999999' 
TABS,ioos:station:wmo:42043:1,2008-10-02T17:30:00Z,28.9818,-94.9186,2.0,274.0770987,9.143134036,-99999.0,'11133222,11111222,99999999' 
TABS,ioos:station:wmo:42043:1,2008-10-02T18:00:00Z,28.9818,-94.9186,2.0,283.9533833,6.677012805,-99999.0,'11133222,11111222,99999999' 
TABS,ioos:station:wmo:42043:1,2008-10-02T18:30:00Z,28.9818,-94.9186,2.0,295.6511954,8.408685985,-99999.0,'11133222,11111222,99999999' 
TABS,ioos:station:wmo:42043:1,2008-10-02T19:00:00Z,28.9818,-94.9186,2.0,303.7086683,8.703246521,-99999.0,'11133222,11111222,99999999' 
TABS,ioos:station:wmo:42043:1,2008-10-02T19:30:00Z,28.9818,-94.9186,2.0,312.2600513,8.282620358,-99999.0,'11133222,11111222,99999999' 
TABS,ioos:station:wmo:42043:1,2008-10-02T20:00:00Z,28.9818,-94.9186,2.0,332.952085,9.016146627,-99999.0,'11133222,11111222,99999999' 
TABS,ioos:station:wmo:42043:1,2008-10-02T20:30:00Z,28.9818,-94.9186,2.0,345.0369112,8.094473423,-99999.0,'11133222,11111222,99999999' 
TABS,ioos:station:wmo:42043:1,2008-10-02T21:00:00Z,28.9818,-94.9186,2.0,326.4961361,9.402217823,-99999.0,'11133222,11111222,99999999' 
TABS,ioos:station:wmo:42043:1,2008-10-02T21:30:00Z,28.9818,-94.9186,2.0,338.6807544,8.16902687,-99999.0,'11133222,11111222,99999999' 
TABS,ioos:station:wmo:42043:1,2008-10-02T22:00:00Z,28.9818,-94.9186,2.0,350.6077831,8.08843619,-99999.0,'11133222,11111222,99999999' 
TABS,ioos:station:wmo:42043:1,2008-10-02T22:30:00Z,28.9818,-94.9186,2.0,345.1875561,5.906284788,-99999.0,'11133222,11111222,99999999' 
TABS,ioos:station:wmo:42043:1,2008-10-02T23:00:00Z,28.9818,-94.9186,2.0,10.01237884,7.880006345,-99999.0,'11133222,11111222,99999999' 
TABS,ioos:station:wmo:42043:1,2008-10-02T23:30:00Z,28.9818,-94.9186,2.0,24.19866106,7.148097649,-99999.0,'11133222,11111222,99999999' 
TABS,ioos:station:wmo:42043:1,2008-10-03T00:00:00Z,28.9818,-94.9186,2.0,58.5349757,7.643984563,-99999.0,'11133222,11111222,99999999' 
TABS,ioos:station:wmo:42043:1,2008-10-03T00:30:00Z,28.9818,-94.9186,2.0,30.84604289,10.00524862,-99999.0,'11111222,11111222,99999999' 
TABS,ioos:station:wmo:42043:1,2008-10-03T01:00:00Z,28.9818,-94.9186,2.0,61.63762027,10.69366635,-99999.0,'11111222,11111222,99999999' 
TABS,ioos:station:wmo:42043:1,2008-10-03T01:30:00Z,28.9818,-94.9186,2.0,72.24926452,7.150419568,-99999.0,'11133222,11111222,99999999' 
TABS,ioos:station:wmo:42043:1,2008-10-03T02:00:00Z,28.9818,-94.9186,2.0,82.60324435,7.845285208,-99999.0,'11133222,11111222,99999999' 
TABS,ioos:station:wmo:42043:1,2008-10-03T02:30:00Z,28.9818,-94.9186,2.0,82.56445785,5.950033613,-99999.0,'11133222,11111222,99999999' 
TABS,ioos:station:wmo:42043:1,2008-10-03T03:00:00Z,28.9818,-94.9186,2.0,94.11143158,4.742204129,-99999.0,'11133222,11111222,99999999' 
TABS,ioos:station:wmo:42043:1,2008-10-03T03:30:00Z,28.9818,-94.9186,2.0,53.49217801,5.698113723,-99999.0,'11133222,11111222,99999999' 
TABS,ioos:station:wmo:42043:1,2008-10-03T04:00:00Z,28.9818,-94.9186,2.0,43.47443178,5.842773314,-99999.0,'11133222,11111222,99999999' 
TABS,ioos:station:wmo:42043:1,2008-10-03T04:30:00Z,28.9818,-94.9186,2.0,39.72705322,7.46327676,-99999.0,'11133222,11111222,99999999' 
TABS,ioos:station:wmo:42043:1,2008-10-03T05:00:00Z,28.9818,-94.9186,2.0,46.40430559,11.25344836,-99999.0,'11111222,11111222,99999999' 
TABS,ioos:station:wmo:42043:1,2008-10-03T05:30:00Z,28.9818,-94.9186,2.0,27.72912336,9.026632816,-99999.0,'11133222,11111222,99999999' 
TABS,ioos:station:wmo:42043:1,2008-10-03T06:00:00Z,28.9818,-94.9186,2.0,20.75273072,11.26059501,-99999.0,'11111222,11111222,99999999' 
TABS,ioos:station:wmo:42043:1,2008-10-03T06:30:00Z,28.9818,-94.9186,2.0,27.16611509,13.64523726,-99999.0,'11111222,11111222,99999999' 
TABS,ioos:station:wmo:42043:1,2008-10-03T07:00:00Z,28.9818,-94.9186,2.0,25.39105731,14.62248269,-99999.0,'11111222,11111222,99999999' 
TABS,ioos:station:wmo:42043:1,2008-10-03T07:30:00Z,28.9818,-94.9186,2.0,23.28820121,16.82037455,-99999.0,'11111222,11111222,99999999' 
TABS,ioos:station:wmo:42043:1,2008-10-03T08:00:00Z,28.9818,-94.9186,2.0,18.22027264,16.02337355,-99999.0,'11111222,11111222,99999999' 
TABS,ioos:station:wmo:42043:1,2008-10-03T08:30:00Z,28.9818,-94.9186,2.0,18.02136526,18.39228643,-99999.0,'11111222,11111222,99999999' 
TABS,ioos:station:wmo:42043:1,2008-10-03T09:00:00Z,28.9818,-94.9186,2.0,16.70572574,17.39412545,-99999.0,'11111222,11111222,99999999' 
TABS,ioos:station:wmo:42043:1,2008-10-03T09:30:00Z,28.9818,-94.9186,2.0,13.7128865,18.8986772,-99999.0,'11111222,11111222,99999999' 
TABS,ioos:station:wmo:42043:1,2008-10-03T10:00:00Z,28.9818,-94.9186,2.0,20.85877772,18.39561361,-99999.0,'11111222,11111222,99999999' 
TABS,ioos:station:wmo:42043:1,2008-10-03T10:30:00Z,28.9818,-94.9186,2.0,23.42990423,16.59858126,-99999.0,'11111222,11111222,99999999' 
TABS,ioos:station:wmo:42043:1,2008-10-03T11:00:00Z,28.9818,-94.9186,2.0,24.22943512,17.008248,-99999.0,'11111222,11111222,99999999' 
TABS,ioos:station:wmo:42043:1,2008-10-03T11:30:00Z,28.9818,-94.9186,2.0,20.56915285,15.54072392,-99999.0,'11111222,11111222,99999999' 
TABS,ioos:station:wmo:42043:1,2008-10-03T12:00:00Z,28.9818,-94.9186,2.0,23.54935749,17.59539144,-99999.0,'11111222,11111222,99999999' 
TABS,ioos:station:wmo:42043:1,2008-10-03T12:30:00Z,28.9818,-94.9186,2.0,20.13433843,16.84970029,-99999.0,'11111222,11111222,99999999' 
TABS,ioos:station:wmo:42043:1,2008-10-03T13:00:00Z,28.9818,-94.9186,2.0,30.70428252,17.41071509,-99999.0,'11111222,11111222,99999999' 
TABS,ioos:station:wmo:42043:1,2008-10-03T13:30:00Z,28.9818,-94.9186,2.0,31.67388847,18.13050744,-99999.0,'11111222,11111222,99999999' 
TABS,ioos:station:wmo:42043:1,2008-10-03T14:00:00Z,28.9818,-94.9186,2.0,33.83589048,16.36093518,-99999.0,'11111222,11111222,99999999' 
TABS,ioos:station:wmo:42043:1,2008-10-03T14:30:00Z,28.9818,-94.9186,2.0,26.46207041,17.3921649,-99999.0,'11111222,11111222,99999999' 
TABS,ioos:station:wmo:42043:1,2008-10-03T15:00:00Z,28.9818,-94.9186,2.0,31.64835759,17.51468527,-99999.0,'11111222,11111222,99999999' 
TABS,ioos:station:wmo:42043:1,2008-10-03T15:30:00Z,28.9818,-94.9186,2.0,35.67927559,17.41976177,-99999.0,'11111222,11111222,99999999' 
TABS,ioos:station:wmo:42043:1,2008-10-03T16:00:00Z,28.9818,-94.9186,2.0,32.82095266,16.08815713,-99999.0,'11111222,11111222,99999999' 
TABS,ioos:station:wmo:42043:1,2008-10-03T16:30:00Z,28.9818,-94.9186,2.0,34.96087392,19.51083033,-99999.0,'11111222,11111222,99999999' 
TABS,ioos:station:wmo:42043:1,2008-10-03T17:00:00Z,28.9818,-94.9186,2.0,26.02974178,22.96989334,-99999.0,'11111222,11111222,99999999' 
TABS,ioos:station:wmo:42043:1,2008-10-03T17:30:00Z,28.9818,-94.9186,2.0,27.14604574,20.73388772,-99999.0,'11111222,11111222,99999999' 
TABS,ioos:station:wmo:42043:1,2008-10-03T18:00:00Z,28.9818,-94.9186,2.0,43.22226867,15.72655398,-99999.0,'11111222,11111222,99999999' 
TABS,ioos:station:wmo:42043:1,2008-10-03T18:30:00Z,28.9818,-94.9186,2.0,73.26248065,17.18819653,-99999.0,'11111222,11111222,99999999' 
TABS,ioos:station:wmo:42043:1,2008-10-03T19:00:00Z,28.9818,-94.9186,2.0,84.91331285,25.03861019,-99999.0,'11111222,11111222,99999999' 
TABS,ioos:station:wmo:42043:1,2008-10-03T19:30:00Z,28.9818,-94.9186,2.0,68.71548175,11.32230542,-99999.0,'11111222,11111222,99999999' 
TABS,ioos:station:wmo:42043:1,2008-10-03T20:00:00Z,28.9818,-94.9186,2.0,67.42357401,10.15846445,-99999.0,'11111222,11111222,99999999' 
TABS,ioos:station:wmo:42043:1,2008-10-03T20:30:00Z,28.9818,-94.9186,2.0,52.01716829,10.70802036,-99999.0,'11111222,11111222,99999999' 
TABS,ioos:station:wmo:42043:1,2008-10-03T21:00:00Z,28.9818,-94.9186,2.0,43.29561671,10.222216,-99999.0,'11111222,11111222,99999999' 
TABS,ioos:station:wmo:42043:1,2008-10-03T21:30:00Z,28.9818,-94.9186,2.0,39.32476262,9.152398593,-99999.0,'11133222,11111222,99999999' 
TABS,ioos:station:wmo:42043:1,2008-10-03T22:00:00Z,28.9818,-94.9186,2.0,24.07686649,9.167578743,-99999.0,'11133222,11111222,99999999' 
TABS,ioos:station:wmo:42043:1,2008-10-03T22:30:00Z,28.9818,-94.9186,2.0,40.43596841,8.264000242,-99999.0,'11133222,11111222,99999999' 
TABS,ioos:station:wmo:42043:1,2008-10-03T23:00:00Z,28.9818,-94.9186,2.0,34.79615537,2.155411794,-99999.0,'11133222,11111222,99999999' 
TABS,ioos:station:wmo:42043:1,2008-10-03T23:30:00Z,28.9818,-94.9186,2.0,47.7488143,5.16074607,-99999.0,'11133222,11111222,99999999' 
TABS,ioos:station:wmo:42043:1,2008-10-04T00:00:00Z,28.9818,-94.9186,2.0,26.53304708,7.969347527,-99999.0,'11133222,11111222,99999999' 
TABS,ioos:station:wmo:42043:1,2008-10-04T00:30:00Z,28.9818,-94.9186,2.0,37.0060235,5.898016616,-99999.0,'11133222,11111222,99999999' 
TABS,ioos:station:wmo:42043:1,2008-10-04T01:00:00Z,28.9818,-94.9186,2.0,22.04657771,8.685050374,-99999.0,'11133222,11111222,99999999' 
TABS,ioos:station:wmo:42043:1,2008-10-04T01:30:00Z,28.9818,-94.9186,2.0,23.30929497,9.527612503,-99999.0,'11133222,11111222,99999999' 
TABS,ioos:station:wmo:42043:1,2008-10-04T02:00:00Z,28.9818,-94.9186,2.0,25.59247464,7.639509147,-99999.0,'11133222,11111222,99999999' 
TABS,ioos:station:wmo:42043:1,2008-10-04T02:30:00Z,28.9818,-94.9186,2.0,35.99967943,6.056698771,-99999.0,'11133222,11111222,99999999' 
TABS,ioos:station:wmo:42043:1,2008-10-04T03:00:00Z,28.9818,-94.9186,2.0,44.82804675,7.064028596,-99999.0,'11133222,11111222,99999999' 
TABS,ioos:station:wmo:42043:1,2008-10-04T03:30:00Z,28.9818,-94.9186,2.0,46.99466987,8.532877592,-99999.0,'11133222,11111222,99999999' 
TABS,ioos:station:wmo:42043:1,2008-10-04T04:00:00Z,28.9818,-94.9186,2.0,67.14858895,7.802371434,-99999.0,'11133222,11111222,99999999' 
TABS,ioos:station:wmo:42043:1,2008-10-04T04:30:00Z,28.9818,-94.9186,2.0,54.24924878,12.1863243,-99999.0,'11111222,11111222,99999999' 
TABS,ioos:station:wmo:42043:1,2008-10-04T05:00:00Z,28.9818,-94.9186,2.0,49.69233794,14.60828874,-99999.0,'11111222,11111222,99999999' 
TABS,ioos:station:wmo:42043:1,2008-10-04T05:30:00Z,28.9818,-94.9186,2.0,48.55820067,16.63493312,-99999.0,'11111222,11111222,99999999' 
TABS,ioos:station:wmo:42043:1,2008-10-04T06:00:00Z,28.9818,-94.9186,2.0,56.04348424,19.67542884,-99999.0,'11111222,11111222,99999999' 
TABS,ioos:station:wmo:42043:1,2008-10-04T06:30:00Z,28.9818,-94.9186,2.0,56.5928023,18.54385343,-99999.0,'11111222,11111222,99999999' 
TABS,ioos:station:wmo:42043:1,2008-10-04T07:00:00Z,28.9818,-94.9186,2.0,53.3284797,21.38212805,-99999.0,'11111222,11111222,99999999' 
TABS,ioos:station:wmo:42043:1,2008-10-04T07:30:00Z,28.9818,-94.9186,2.0,54.24125601,22.58824694,-99999.0,'11111222,11111222,99999999' 
TABS,ioos:station:wmo:42043:1,2008-10-04T08:00:00Z,28.9818,-94.9186,2.0,61.13262337,22.59805744,-99999.0,'11111222,11111222,99999999' 
TABS,ioos:station:wmo:42043:1,2008-10-04T08:30:00Z,28.9818,-94.9186,2.0,57.32127628,20.74347126,-99999.0,'11111222,11111222,99999999' 
TABS,ioos:station:wmo:42043:1,2008-10-04T09:00:00Z,28.9818,-94.9186,2.0,58.17262785,20.4792578,-99999.0,'11111222,11111222,99999999' 
TABS,ioos:station:wmo:42043:1,2008-10-04T09:30:00Z,28.9818,-94.9186,2.0,58.07190111,19.66509853,-99999.0,'11111222,11111222,99999999' 
TABS,ioos:station:wmo:42043:1,2008-10-04T10:00:00Z,28.9818,-94.9186,2.0,62.20246037,19.12727895,-99999.0,'11111222,11111222,99999999' 
TABS,ioos:station:wmo:42043:1,2008-10-04T10:30:00Z,28.9818,-94.9186,2.0,64.0943763,17.87631114,-99999.0,'11111222,11111222,99999999' 
TABS,ioos:station:wmo:42043:1,2008-10-04T11:00:00Z,28.9818,-94.9186,2.0,63.10112401,19.18578901,-99999.0,'11111222,11111222,99999999' 
TABS,ioos:station:wmo:42043:1,2008-10-04T11:30:00Z,28.9818,-94.9186,2.0,63.02557462,19.40062112,-99999.0,'11111222,11111222,99999999' 
TABS,ioos:station:wmo:42043:1,2008-10-04T12:00:00Z,28.9818,-94.9186,2.0,70.7763936,17.91916293,-99999.0,'11111222,11111222,99999999' 
TABS,ioos:station:wmo:42043:1,2008-10-04T12:30:00Z,28.9818,-94.9186,2.0,71.6773785,17.74989859,-99999.0,'11111222,11111222,99999999' 
TABS,ioos:station:wmo:42043:1,2008-10-04T13:00:00Z,28.9818,-94.9186,2.0,80.41707769,14.83704148,-99999.0,'11111222,11111222,99999999' 
TABS,ioos:station:wmo:42043:1,2008-10-04T13:30:00Z,28.9818,-94.9186,2.0,73.35570856,15.98995935,-99999.0,'11111222,11111222,99999999' 
TABS,ioos:station:wmo:42043:1,2008-10-04T14:00:00Z,28.9818,-94.9186,2.0,80.50391711,13.94103655,-99999.0,'11111222,11111222,99999999' 
TABS,ioos:station:wmo:42043:1,2008-10-04T14:30:00Z,28.9818,-94.9186,2.0,81.370258,14.59523895,-99999.0,'11111222,11111222,99999999' 
TABS,ioos:station:wmo:42043:1,2008-10-04T15:00:00Z,28.9818,-94.9186,2.0,95.1667052,13.10324006,-99999.0,'11111222,11111222,99999999' 
TABS,ioos:station:wmo:42043:1,2008-10-04T15:30:00Z,28.9818,-94.9186,2.0,91.35674848,11.40319692,-99999.0,'11111222,11111222,99999999' 
TABS,ioos:station:wmo:42043:1,2008-10-04T16:00:00Z,28.9818,-94.9186,2.0,88.284284,13.0258397,-99999.0,'11111222,11111222,99999999' 